IRIDIUM 113

Last updated on Fri Sep 11 2026 00:03:06 GMT+0000 (Coordinated Universal Time)

1 42803U 17039A 26253.49749046 .00000054 00000+0 12216-4 0 9992 2 42803 86.3929 286.5217 0002336 94.3214 265.8249 14.34217948483413
UTC large
Height (km)
Speed (km/s)
/
Latitude / Longitude
Inclination (degrees)
Orbital Period (minutes)
Azimuth
Elevation
Range (km)
Doppler Factor

Next 0 passes for location: London (51.5072 / 0.1276)

No passes found over London.
IRIDIUM 113